Weather History for PAPG - September, 2011

Change the Weather History Date:

Thursday, September 22, 2011

  Actual Average Record
Temperature  
Mean Temperature 50 °F -  
Max Temperature 55 °F 52 °F 80 °F (2001)
Min Temperature 44 °F 42 °F 37 °F (1984)
Degree Days  
Heating Degree Days 16    
Moisture  
Dew Point 43 °F    
Average Humidity 77    
Maximum Humidity 93    
Minimum Humidity 58    
Precipitation  
Precipitation 0.00 in - - ()
Sea Level Pressure  
Sea Level Pressure 29.62 in    
Wind  
Wind Speed 5 mph (ESE)    
Max Wind Speed 16 mph    
Max Gust Speed 28 mph    
Visibility 10 miles    
Events      
Averages and records for this station are not official NWS values.
T = Trace of Precipitation, MM = Missing Value Source: NWS Daily Summary

Daily Weather History Graph

Daily Weather History Graph

Search for Another Location

Airport or City:

Trip Planner

Search our weather history database for the weather conditions in past years. The results will help you decide how hot, cold, wet, or windy it might be!

Date:

Astronomy

Sep. 22, 2011 Rise Set
Actual Time 6:36 AM AKDT 6:51 PM AKDT
Civil Twilight 5:58 AM AKDT 7:29 PM AKDT
Nautical Twilight 5:13 AM AKDT 8:14 PM AKDT
Astronomical Twilight 4:24 AM AKDT 9:02 PM AKDT
Moon 12:04 AM AKDT (9/22) 4:39 PM AKDT (9/22)
Length of Visible Light 13h 30m
Length of Day
12h 14m
Waning Crescent, 27% of the Moon is Illuminated
Sep 22
Waning Crescent
Sep 27
New
Oct 3
First Quarter
Oct 11
Full
Oct 19
Last Quarter

Hourly Weather History & Observations

Time (AKDT) Temp. Windchill Dew Point Humidity Pressure Visibility Wind Dir Wind Speed Gust Speed Precip Events Conditions
12:16 AM 46.4 °F 45.2 °F 42.8 °F 87% 29.61 in 9.0 mi South 3.5 mph - N/A   Overcast
12:36 AM 48.2 °F - 42.8 °F 82% 29.62 in 10.0 mi South 8.1 mph 18.4 mph N/A   Mostly Cloudy
12:56 AM 48.2 °F - 39.2 °F 71% 29.62 in 10.0 mi South 13.8 mph 26.5 mph N/A   Overcast
1:16 AM 48.2 °F - 39.2 °F 71% 29.64 in 10.0 mi South 16.1 mph 27.6 mph N/A   Overcast
1:36 AM 46.4 °F 40.7 °F 39.2 °F 76% 29.64 in 10.0 mi SSW 12.7 mph 21.9 mph N/A   Overcast
1:56 AM 48.2 °F - 41.0 °F 76% 29.64 in 10.0 mi SSW 8.1 mph - N/A   Overcast
2:16 AM 46.4 °F - 42.8 °F 87% 29.64 in 7.0 mi Calm Calm - N/A   Overcast
2:36 AM 46.4 °F 43.5 °F 42.8 °F 87% 29.65 in 8.0 mi South 5.8 mph - N/A   Overcast
2:56 AM 46.4 °F 44.3 °F 42.8 °F 87% 29.65 in 10.0 mi NE 4.6 mph - N/A   Overcast
3:16 AM 46.4 °F 45.2 °F 42.8 °F 87% 29.66 in 10.0 mi NW 3.5 mph - N/A   Overcast
3:36 AM 46.4 °F - 42.8 °F 87% 29.66 in 10.0 mi Calm Calm - N/A   Mostly Cloudy
3:56 AM 46.4 °F 44.3 °F 42.8 °F 87% 29.67 in 10.0 mi SSW 4.6 mph - N/A   Mostly Cloudy
4:16 AM 46.4 °F 44.3 °F 44.6 °F 93% 29.67 in 10.0 mi ENE 4.6 mph - N/A   Overcast
4:36 AM 46.4 °F 45.2 °F 42.8 °F 87% 29.67 in 10.0 mi ESE 3.5 mph - N/A   Overcast
4:56 AM 46.4 °F 42.9 °F 42.8 °F 87% 29.67 in 10.0 mi ESE 6.9 mph - N/A   Overcast
5:16 AM 46.4 °F - 42.8 °F 87% 29.68 in 10.0 mi Calm Calm - N/A   Overcast
5:36 AM 46.4 °F 45.2 °F 42.8 °F 87% 29.68 in 10.0 mi SW 3.5 mph - N/A   Overcast
5:56 AM 46.4 °F 44.3 °F 42.8 °F 87% 29.68 in 10.0 mi East 4.6 mph - N/A   Overcast
6:16 AM 44.6 °F 43.1 °F 42.8 °F 93% 29.68 in 10.0 mi SW 3.5 mph - N/A   Overcast
6:36 AM 44.6 °F - 42.8 °F 93% 29.68 in 10.0 mi Calm Calm - N/A   Overcast
6:56 AM 44.6 °F - 42.8 °F 93% 29.69 in 10.0 mi Calm Calm - N/A   Mostly Cloudy
7:16 AM 44.6 °F - 42.8 °F 93% 29.69 in 10.0 mi Calm Calm - N/A   Mostly Cloudy
7:36 AM 46.4 °F 45.2 °F 42.8 °F 87% 29.69 in 10.0 mi North 3.5 mph - N/A   Mostly Cloudy
7:56 AM 46.4 °F - 44.6 °F 93% 29.70 in 10.0 mi Calm Calm - N/A   Mostly Cloudy
8:16 AM 46.4 °F 45.2 °F 42.8 °F 87% 29.70 in 10.0 mi West 3.5 mph - N/A   Mostly Cloudy
8:36 AM 46.4 °F - 44.6 °F 93% 29.70 in 10.0 mi Calm Calm - N/A   Mostly Cloudy
8:56 AM 48.2 °F - 44.6 °F 87% 29.70 in 10.0 mi Calm Calm - N/A   Mostly Cloudy
9:16 AM 48.2 °F - 44.6 °F 87% 29.71 in 10.0 mi Calm Calm - N/A   Mostly Cloudy
9:36 AM 51.8 °F - 46.4 °F 82% 29.70 in 10.0 mi NE 4.6 mph - N/A   Mostly Cloudy
9:56 AM 51.8 °F - 44.6 °F 76% 29.70 in 10.0 mi Calm Calm - N/A   Scattered Clouds
10:16 AM 51.8 °F - 44.6 °F 76% 29.70 in 10.0 mi East 3.5 mph - N/A   Scattered Clouds
10:36 AM 51.8 °F - 46.4 °F 82% 29.70 in 10.0 mi SE 4.6 mph - N/A   Scattered Clouds
10:56 AM 53.6 °F - 44.6 °F 72% 29.70 in 10.0 mi Calm Calm - N/A   Scattered Clouds
11:16 AM 53.6 °F - 42.8 °F 67% 29.69 in 10.0 mi ESE 5.8 mph - N/A   Scattered Clouds
11:36 AM 53.6 °F - 42.8 °F 67% 29.68 in 10.0 mi SE 5.8 mph - N/A   Scattered Clouds
12:16 PM 53.6 °F - 42.8 °F 67% 29.67 in 10.0 mi East 9.2 mph - N/A   Scattered Clouds
12:36 PM 53.6 °F - 42.8 °F 67% 29.66 in 10.0 mi ESE 6.9 mph 16.1 mph N/A   Scattered Clouds
12:56 PM 55.4 °F - 42.8 °F 63% 29.64 in 10.0 mi East 9.2 mph - N/A   Scattered Clouds
1:16 PM 55.4 °F - 42.8 °F 63% 29.63 in 10.0 mi ESE 8.1 mph - N/A   Scattered Clouds
1:36 PM 55.4 °F - 42.8 °F 63% 29.63 in 10.0 mi ESE 8.1 mph - N/A   Scattered Clouds
1:56 PM 55.4 °F - 42.8 °F 63% 29.62 in 10.0 mi ESE 8.1 mph - N/A   Scattered Clouds
2:16 PM 53.6 °F - 42.8 °F 67% 29.62 in 10.0 mi ESE 9.2 mph - N/A   Scattered Clouds
2:36 PM 53.6 °F - 41.0 °F 62% 29.60 in 10.0 mi SE 5.8 mph - N/A   Scattered Clouds
2:56 PM 55.4 °F - 42.8 °F 63% 29.59 in 10.0 mi ESE 8.1 mph - N/A   Scattered Clouds
3:16 PM 53.6 °F - 42.8 °F 67% 29.57 in 10.0 mi ESE 8.1 mph - N/A   Scattered Clouds
3:36 PM 53.6 °F - 41.0 °F 62% 29.56 in 10.0 mi ESE 8.1 mph - N/A   Scattered Clouds
3:56 PM 53.6 °F - 41.0 °F 62% 29.54 in 10.0 mi East 4.6 mph - N/A   Mostly Cloudy
4:16 PM 53.6 °F - 39.2 °F 58% 29.53 in 10.0 mi Calm Calm - N/A   Mostly Cloudy
4:36 PM 53.6 °F - 39.2 °F 58% 29.51 in 10.0 mi NNE 3.5 mph - N/A   Mostly Cloudy
4:56 PM 53.6 °F - 41.0 °F 62% 29.48 in 10.0 mi ENE 4.6 mph - N/A   Mostly Cloudy
5:16 PM 53.6 °F - 39.2 °F 58% 29.46 in 10.0 mi ENE 3.5 mph - N/A   Mostly Cloudy
5:36 PM 51.8 °F - 41.0 °F 67% 29.45 in 10.0 mi SSE 3.5 mph - N/A   Mostly Cloudy
5:56 PM 50.0 °F - 42.8 °F 76% 29.41 in 10.0 mi Calm Calm - N/A   Scattered Clouds
6:16 PM 48.2 °F - 42.8 °F 82% 29.39 in 10.0 mi SE 4.6 mph - N/A   Scattered Clouds
6:36 PM 48.2 °F - 42.8 °F 82% 29.36 in 10.0 mi East 4.6 mph - N/A   Scattered Clouds
6:56 PM 48.2 °F - 42.8 °F 82% 29.34 in 10.0 mi East 3.5 mph - N/A   Mostly Cloudy
7:16 PM 48.2 °F - 42.8 °F 82% 29.31 in 10.0 mi ESE 4.6 mph - N/A   Mostly Cloudy
7:36 PM 46.4 °F - 42.8 °F 87% 29.29 in 10.0 mi Calm Calm - N/A   Mostly Cloudy
7:56 PM 46.4 °F - 42.8 °F 87% 29.25 in 10.0 mi Calm Calm - N/A   Mostly Cloudy
8:16 PM 46.4 °F - 42.8 °F 87% 29.21 in 10.0 mi Calm Calm - N/A   Mostly Cloudy
8:36 PM 46.4 °F 43.5 °F 42.8 °F 87% 29.18 in 10.0 mi SE 5.8 mph - N/A   Mostly Cloudy
8:56 PM 46.4 °F 45.2 °F 42.8 °F 87% 29.16 in 10.0 mi East 3.5 mph - N/A   Overcast
9:16 PM 46.4 °F 45.2 °F 42.8 °F 87% 29.10 in 10.0 mi NE 3.5 mph - N/A   Overcast
9:36 PM 46.4 °F 45.2 °F 41.0 °F 81% 29.07 in 10.0 mi West 3.5 mph - N/A   Overcast
9:56 PM 46.4 °F 45.2 °F 42.8 °F 87% 29.06 in 10.0 mi South 3.5 mph - N/A   Overcast
10:16 PM 46.4 °F - 42.8 °F 87% 29.03 in 10.0 mi Calm Calm - N/A   Overcast
10:36 PM 46.4 °F 43.5 °F 42.8 °F 87% 29.01 in 10.0 mi NE 5.8 mph - N/A   Overcast
10:56 PM 46.4 °F 42.9 °F 42.8 °F 87% 29.00 in 10.0 mi NNE 6.9 mph - N/A   Overcast
11:16 PM 46.4 °F 44.3 °F 42.8 °F 87% 28.97 in 10.0 mi ENE 4.6 mph - N/A   Overcast
11:36 PM 46.4 °F 42.4 °F 42.8 °F 87% 28.94 in 10.0 mi NNE 8.1 mph - N/A   Overcast
11:56 PM 46.4 °F 43.5 °F 42.8 °F 87% 28.90 in 10.0 mi SE 5.8 mph - N/A   Mostly Cloudy